sat.trackr.live / text

‹ back to catalog

STARLINK-35250

NORAD 65603 · 2025-207M

PAYLOAD ACTIVE UNKNOWN

§ Identity

Operator
Country
US
Launch date
2025-09-13
Launch site
AFWTR
Launch vehicle
Mass (kg)
RCS (m²)

Purposes: comms

External: N2YO · Heavens-Above · Gunter

§ Orbital elements

Epoch: 2026-09-20T22:00:03.000096Z

Period
93.90 min
Inclination
97.2854°
Eccentricity
0.0001830
Mean motion
15.33466783 rev/d
Perigee alt
464.2 km
Apogee alt
466.7 km
Semi-major
6,843.6 km
B*
-2.5307e-4
RAAN
326.4943°
Arg perigee
94.7254°
Mean anomaly
320.7311°
Rev number
579

§ Raw data

STARLINK-352501 65603U 25207M   26263.91670139 -.00008242  00000+0 -25307-3 0  99982 65603  97.2854 326.4943 0001830  94.7254 320.7311 15.33466783  5795

JSON: /api/v1/satellites/65603 · /tle

For live sub-satellite position, see the globe view (requires WebGL).

§ Visibility from observer

Set your observer location to see the next 7 days of passes ≥ 10°. The values pass through the URL so the page stays shareable.

No JS? Fill the form by hand. The geolocation button needs JavaScript.